SL-16 DEB

Satellite information

Favourite Embed

Satellite Type and Status

DEBRISIN ORBIT

Key statistics

Satellite SL-16 DEB at a glance.

Uptime

11823

Days in orbit

Revolutions

≈ 14.7

Per day

Orbit

LEO

Low Earth Orbit

Inclination

70.8

Latest

Satellite identification and parameters

Extended collection of information and parameters for SL-16 DEB.

Object identification

Identified? True

Debris? True

Object name: SL-16 DEB

International designator: 1992-093L

Object number (NORAD): 22296

Object ID (CCSDS): 22296

Country: COMMONWEALTH OF INDEPENDENT STATES (CIS)

Current information (Y/N): Y

RCS size: SMALL

Orbital parameters

Period: 97.664 minutes

Inclination: 70.83 deg

SMA: 7025.038 km

Apoapsis: 677.987 km

Periapsis: 615.818 km

RAAN: 108.3568 deg

Eccentricy: 0.0044248

Argument of periapsis: 281.2196 deg

Mean anomaly: 138.8363 deg

Mean motion: 14.74449021 rev/day

Mean motion (dot): 0.00020821 rev/day2

B* drag term: 0.0030834 1/REarth

Two-line elements (TLE)

Creation date: May 8, 2025, 3:01 a.m.

Reference frame: TEME

Reference center: EARTH

Epoch: May 7, 2025, 5:44 p.m. UTC

TLE line 0: 0 SL-16 DEB

TLE line 1: 1 22296U 92093L 25127.73940193 .00020821 00000-0 30834-2 0 9990

TLE line 2: 2 22296 70.8300 108.3568 0044248 281.2196 138.8363 14.74449021677708

Live tracking on map

Real-time ground track for satellite SL-16 DEB.

In-orbit conjunctions

A list of the most updated potential collisions computed for object SL-16 DEB.

Target Orbit TCA Probability of collision Miss distance Type
CZ-2C R/B LEO 2025-02-24 20:04:58 0.0001677084 412.0 (m) ROCKET BODY
CZ-6A DEB LEO 2024-11-21 00:26:36 0.0001277196 324.0 (m) DEBRIS
DELTA 1 DEB SSO 2024-11-20 21:17:39 0.0001280001 11.0 (m) DEBRIS

Associated space launch

Second generation ELING satellite

SL-16 DEB was lifted into orbit during the mission ‘Zenit-2 | Tselina-2 12’, on board a Zenit-2 space rocket.

The launch took place on Dec. 25, 1992, 5:56 a.m. from 45/1.

For more information about the launch, click the button.

Launch to space Zenit-2 | Tselina-2 12
Zenit-2 | Tselina-2 12

Agency: N/A

Status: Launch Successful

Launch date: Dec. 25, 1992, 5:56 a.m. UTC

Rocket: Zenit-2

Launch pad: 45/1

Location: Baikonur Cosmodrome, Republic of Kazakhstan

...

Latest news about this satellite

There are no fresh news available about this satellite. Check back as we update our databases every day.


Newsletter sign-up

Weekly statistics, charts and insights to help you stay on top of the space industry.